Terminal Aerodrome Forecast
Issued by NWS Pittsburgh, PA

Current Version | Previous Version | Graphics & Text | Print | Product List | Glossary On
Versions: 1 2 3 4 5 6 7 8 9 10 11 12 13 14 15 16 17 18 19 20 21 22 23 24 25 26 27 28 29 30 31 32 33 34 35
000
FTUS41 KPBZ 241907 AAA
TAFPIT
TAF AMD
KPIT 241907Z 2419/2524 24008KT P6SM -SHRA VCTS BKN040CB
      TEMPO 2419/2421 VRB15G30KT 1SM -TSRA BKN035CB
     FM250300 21003KT P6SM BKN080
     FM251600 26010KT P6SM VCTS BKN040CB=

USA.gov is the U.S. government's official web portal to all federal, state and local government web resources and services.